Hibbing, MN

4:35 PM CDT on June 23, 2017 (GMT -0500)
Chisholm-hibbing

Weather History for KHIB - March, 2014

Change the Weather History Date:

Saturday, March 1, 2014

  Actual Average Record
Temperature  
Mean Temperature -12 °F -  
Max Temperature -7 °F 29 °F 52 °F (1993)
Min Temperature -20 °F 7 °F -20 °F (1980)
Degree Days  
Heating Degree Days 78    
Moisture  
Dew Point -23 °F    
Average Humidity 59    
Maximum Humidity 74    
Minimum Humidity 41    
Precipitation  
Precipitation 0.00 in - - ()
Sea Level Pressure  
Sea Level Pressure 30.42 in    
Wind  
Wind Speed 14 mph (NW)    
Max Wind Speed 21 mph    
Max Gust Speed 28 mph    
Visibility 9 miles    
Events      
Averages and records for this station are not official NWS values.
T = Trace of Precipitation, MM = Missing Value Source: NWS Daily Summary

Daily Weather History Graph

Daily Weather History Graph

Search for Another Location

Airport or City:

Trip Planner

Search our weather history database for the weather conditions in past years. The results will help you decide how hot, cold, wet, or windy it might be!

Date:

Astronomy

Mar. 01, 2014 Rise Set
Actual Time 6:51 AM CST 5:56 PM CST
Civil Twilight 6:20 AM CST 6:27 PM CST
Nautical Twilight 5:45 AM CST 7:02 PM CST
Astronomical Twilight 5:09 AM CST 7:38 PM CST
Moon 6:41 AM CST (3/1) 6:50 PM CST (3/1)
Length of Visible Light 12h 06m
Length of Day
11h 04m
New Moon, 0% of the Moon is Illuminated
Mar 1
New Moon
Mar 8
First Quarter
Mar 16
Full
Mar 23
Last Quarter
Mar 30
New

Hourly Weather History & Observations

Time (CST) Temp. Windchill Dew Point Humidity Pressure Visibility Wind Dir Wind Speed Gust Speed Precip Events Conditions
12:53 AM -7.1 °F -26.8 °F -14.1 °F 72% 30.25 in 10.0 mi NW 12.7 mph - N/A   Mostly Cloudy
1:06 AM -7.1 °F -27.6 °F -14.1 °F 72% 30.13 in 10.0 mi NW 13.8 mph - N/A   Scattered Clouds
1:53 AM -8.0 °F -27.1 °F -15.0 °F 71% 30.26 in 10.0 mi NW 11.5 mph - N/A   Clear
2:53 AM -9.9 °F -30.5 °F -17.0 °F 71% 30.28 in 9.0 mi NW 12.7 mph 23.0 mph N/A   Clear
3:29 AM -11.9 °F -31.0 °F -18.0 °F 74% 30.17 in 6.0 mi NW 10.4 mph - N/A   Haze
3:53 AM -11.9 °F -36.8 °F -18.9 °F 71% 30.31 in 6.0 mi NW 18.4 mph - N/A   Haze
4:53 AM -14.1 °F -38.2 °F -20.9 °F 71% 30.33 in 5.0 mi NW 16.1 mph - N/A   Haze
5:53 AM -16.1 °F -40.7 °F -22.0 °F 74% 30.36 in 6.0 mi NW 16.1 mph - N/A   Haze
6:53 AM -17.0 °F -41.9 °F -24.0 °F 70% 30.38 in 4.0 mi NW 16.1 mph - N/A   Haze
7:53 AM -18.0 °F -44.0 °F -25.1 °F 70% 30.41 in 6.0 mi NNW 17.3 mph - N/A   Haze
8:51 AM -16.6 °F -36.8 °F -23.8 °F 70% 30.31 in 10.0 mi NW 10.4 mph - N/A   Scattered Clouds
8:53 AM -16.1 °F -38.2 °F -24.0 °F 67% 30.45 in 10.0 mi NW 12.7 mph - N/A   Scattered Clouds
9:53 AM -13.0 °F -36.8 °F -22.0 °F 64% 30.45 in 10.0 mi NW 16.1 mph - N/A   Clear
10:53 AM -11.0 °F -36.2 °F -23.1 °F 55% 30.48 in 9.0 mi NNW 19.6 mph - N/A   Clear
11:53 AM -9.0 °F -32.4 °F -23.1 °F 50% 30.50 in 10.0 mi NW 17.3 mph - N/A   Clear
12:53 PM -8.0 °F -31.0 °F -23.1 °F 48% 30.48 in 10.0 mi NW 17.3 mph 27.6 mph N/A   Clear
1:53 PM -7.1 °F -29.8 °F -24.0 °F 44% 30.49 in 10.0 mi NW 17.3 mph 23.0 mph N/A   Clear
2:53 PM -7.1 °F -31.6 °F -22.0 °F 48% 30.49 in 10.0 mi NW 20.7 mph - N/A   Clear
3:53 PM -7.1 °F -26.8 °F -24.0 °F 44% 30.49 in 10.0 mi NW 12.7 mph 21.9 mph N/A   Clear
4:53 PM -8.0 °F -31.6 °F -24.0 °F 46% 30.50 in 10.0 mi NW 18.4 mph - N/A   Clear
5:53 PM -9.0 °F -26.4 °F -27.0 °F 41% 30.51 in 10.0 mi WNW 9.2 mph - N/A   Clear
6:53 PM -11.0 °F -29.9 °F -29.0 °F 41% 30.54 in 10.0 mi WNW 10.4 mph - N/A   Clear
7:53 PM -13.0 °F -32.4 °F -29.0 °F 45% 30.56 in 10.0 mi WNW 10.4 mph - N/A   Clear
8:53 PM -15.0 °F -29.3 °F -29.9 °F 47% 30.56 in 10.0 mi West 5.8 mph - N/A   Clear
9:53 PM -18.0 °F -38.6 °F -29.9 °F 55% 30.55 in 10.0 mi NW 10.4 mph - N/A   Clear
10:53 PM -18.9 °F -39.8 °F -31.0 °F 54% 30.56 in 10.0 mi NW 10.4 mph - N/A   Clear
11:53 PM -20.9 °F -38.1 °F -31.0 °F 60% 30.55 in 10.0 mi WNW 6.9 mph - N/A   Clear